Location: Fond Mahaut
(18.0707°N, 63.0465°W)
Time: 18:37:12
(UTC+00:00)

YAOGAN 1 - Pass Details

Date: 08 December 2019
Orbit: 619 x 621 km, 98.0° (Epoch: 20 January)

Event Time Altitude Azimuth Distance (km) Brightness Sun altitude
Rises 23:18:41 0° 180° (S) 2,882 6.2 -23.6°
Reaches altitude 10° 23:20:55 10° 186° (S) 1,978 5.4 -24.1°
Maximum altitude 23:25:03 47° 260° (W) 824 3.5 -25.0°
Drops below altitude 10° 23:29:13 10° 334° (NNW) 1,983 5.2 -26.0°
Sets 23:31:28 0° 340° (NNW) 2,890 6.0 -26.5°
